| time (UTC) | temp F | wind direction | speed knots | gust knots | rain 1hr in | rain 24hr in | rain mn in | humidity % | barometer mb |
| 20260510211021 | 44 | 0 | 0.0 | 0.0 | 0.00 | 0.00 | 0.00 | 72 | 1013.6 |
| 20260510205521 | 44 | 0 | 0.0 | 0.0 | 0.00 | 0.00 | 0.00 | 71 | 1013.7 |
| 20260510204021 | 45 | 0 | 0.0 | 0.0 | 0.00 | 0.00 | 0.00 | 69 | 1013.6 |
| 20260510202521 | 46 | 0 | 0.0 | 0.0 | 0.00 | 0.00 | 0.00 | 66 | 1013.6 |
| 20260510201021 | 47 | 135 | 0.0 | 1.7 | 0.00 | 0.00 | 0.00 | 63 | 1013.6 |
| 20260510195521 | 47 | 135 | 0.0 | 1.7 | 0.00 | 0.00 | 0.00 | 62 | 1014.0 |
| 20260510194021 | 48 | 107 | 0.0 | 3.5 | 0.00 | 0.00 | 0.00 | 58 | 1013.7 |
| 20260510192521 | 49 | 155 | 0.0 | 1.7 | 0.00 | 0.00 | 0.00 | 57 | 1013.9 |
| 20260510191021 | 50 | 79 | 0.9 | 3.5 | 0.00 | 0.00 | 0.00 | 55 | 1014.0 |
| 20260510185521 | 50 | 147 | 0.0 | 1.7 | 0.00 | 0.00 | 0.00 | 54 | 1014.0 |
| 20260510184021 | 51 | 142 | 0.0 | 3.5 | 0.00 | 0.00 | 0.00 | 51 | 1013.7 |
| 20260510182521 | 52 | 155 | 0.9 | 1.7 | 0.00 | 0.00 | 0.00 | 51 | 1013.4 |
| 20260510181021 | 53 | 60 | 0.0 | 1.7 | 0.00 | 0.00 | 0.00 | 50 | 1013.3 |
| 20260510175521 | 53 | 83 | 0.0 | 5.2 | 0.00 | 0.00 | 0.00 | 49 | 1013.1 |
| 20260510174021 | 55 | 100 | 0.0 | 3.5 | 0.00 | 0.00 | 0.00 | 45 | 1012.9 |
| 20260510172521 | 55 | 120 | 0.9 | 3.5 | 0.00 | 0.00 | 0.00 | 46 | 1012.8 |
| 20260510171021 | 53 | 58 | 0.0 | 1.7 | 0.00 | 0.00 | 0.00 | 48 | 1012.8 |
| 20260510165521 | 54 | 28 | 0.9 | 5.2 | 0.00 | 0.00 | 0.00 | 47 | 1012.7 |
| 20260510164021 | 55 | 104 | 1.7 | 3.5 | 0.00 | 0.00 | 0.00 | 45 | 1012.9 |
| 20260510162521 | 55 | 132 | 0.0 | 3.5 | 0.00 | 0.00 | 0.00 | 46 | 1013.0 |
| 20260510161021 | 56 | 52 | 0.9 | 3.5 | 0.00 | 0.00 | 0.00 | 48 | 1012.9 |
| 20260510155521 | 56 | 324 | 1.7 | 3.5 | 0.00 | 0.00 | 0.00 | 46 | 1012.6 |
| 20260510154021 | 58 | 95 | 0.9 | 3.5 | 0.00 | 0.00 | 0.00 | 45 | 1013.1 |
| 20260510152521 | 58 | 347 | 0.9 | 3.5 | 0.00 | 0.00 | 0.00 | 44 | 1013.4 |
| 20260510151021 | 58 | 77 | 1.7 | 5.2 | 0.00 | 0.00 | 0.00 | 44 | 1013.6 |
| 20260510145521 | 58 | 95 | 1.7 | 3.5 | 0.00 | 0.00 | 0.00 | 43 | 1013.4 |
| 20260510144021 | 56 | 222 | 0.9 | 5.2 | 0.00 | 0.00 | 0.00 | 46 | 1014.3 |
| 20260510142521 | 57 | 22 | 0.9 | 7.8 | 0.00 | 0.00 | 0.00 | 45 | 1014.2 |
| 20260510141021 | 58 | 136 | 1.7 | 3.5 | 0.00 | 0.00 | 0.00 | 44 | 1014.7 |
| 20260510135521 | 57 | 202 | 0.9 | 5.2 | 0.00 | 0.00 | 0.00 | 44 | 1014.8 |
| 20260510134021 | 60 | 29 | 0.9 | 5.2 | 0.00 | 0.00 | 0.00 | 43 | 1015.0 |
| 20260510132521 | 57 | 338 | 1.7 | 5.2 | 0.00 | 0.00 | 0.00 | 44 | 1015.5 |
| 20260510131021 | 57 | 84 | 0.9 | 3.5 | 0.00 | 0.00 | 0.00 | 47 | 1015.7 |
| 20260510125521 | 60 | 82 | 0.9 | 5.2 | 0.00 | 0.00 | 0.00 | 47 | 1015.7 |
| 20260510124021 | 57 | 58 | 1.7 | 5.2 | 0.00 | 0.00 | 0.00 | 46 | 1016.5 |
| 20260510122521 | 59 | 22 | 0.9 | 6.1 | 0.00 | 0.00 | 0.00 | 45 | 1016.6 |
| 20260510121021 | 57 | 85 | 1.7 | 6.1 | 0.00 | 0.00 | 0.00 | 49 | 1016.9 |
| 20260510115521 | 57 | 52 | 1.7 | 7.0 | 0.00 | 0.00 | 0.00 | 51 | 1017.3 |
| 20260510114021 | 54 | 267 | 1.7 | 3.5 | 0.00 | 0.00 | 0.00 | 54 | 1017.4 |
| 20260510112521 | 55 | 68 | 1.7 | 3.5 | 0.00 | 0.00 | 0.00 | 53 | 1017.6 |
| 20260510111021 | 54 | 57 | 0.9 | 6.1 | 0.00 | 0.00 | 0.00 | 57 | 1017.9 |
| 20260510105521 | 53 | 360 | 1.7 | 5.2 | 0.00 | 0.00 | 0.00 | 59 | 1017.8 |
| 20260510104021 | 53 | 111 | 1.7 | 6.1 | 0.00 | 0.00 | 0.00 | 59 | 1018.0 |
| 20260510102521 | 52 | 325 | 0.9 | 5.2 | 0.00 | 0.00 | 0.00 | 62 | 1018.1 |
| 20260510101021 | 54 | 98 | 1.7 | 5.2 | 0.00 | 0.00 | 0.00 | 58 | 1018.6 |
| 20260510095521 | 52 | 175 | 0.0 | 5.2 | 0.00 | 0.00 | 0.00 | 59 | 1018.7 |
| 20260510094021 | 54 | 97 | 1.7 | 6.1 | 0.00 | 0.00 | 0.00 | 59 | 1019.0 |
| 20260510092521 | 52 | 7 | 1.7 | 5.2 | 0.00 | 0.00 | 0.00 | 64 | 1018.9 |
| 20260510091021 | 51 | 345 | 1.7 | 3.5 | 0.00 | 0.00 | 0.00 | 66 | 1019.1 |
| 20260510085521 | 51 | 98 | 1.7 | 5.2 | 0.00 | 0.00 | 0.00 | 68 | 1019.3 |
| 20260510084021 | 50 | 330 | 1.7 | 7.8 | 0.00 | 0.00 | 0.00 | 74 | 1019.6 |
| 20260510082521 | 50 | 253 | 0.9 | 3.5 | 0.00 | 0.00 | 0.00 | 75 | 1019.4 |
| 20260510081021 | 50 | 84 | 0.0 | 5.2 | 0.00 | 0.00 | 0.00 | 75 | 1019.4 |
| 20260510075521 | 49 | 306 | 0.9 | 3.5 | 0.00 | 0.00 | 0.00 | 76 | 1019.7 |
| 20260510074021 | 49 | 334 | 0.9 | 3.5 | 0.00 | 0.00 | 0.00 | 76 | 1019.6 |
| 20260510072521 | 49 | 275 | 0.9 | 3.5 | 0.00 | 0.00 | 0.00 | 77 | 1019.7 |
| 20260510071021 | 49 | 341 | 0.0 | 3.5 | 0.00 | 0.00 | 0.00 | 77 | 1019.5 |
| 20260510065521 | 47 | 305 | 0.9 | 5.2 | 0.00 | 0.00 | 0.00 | 79 | 1019.8 |
| 20260510064021 | 47 | 299 | 0.9 | 3.5 | 0.00 | 0.00 | 0.00 | 78 | 1019.5 |
| 20260510062521 | 47 | 330 | 0.9 | 3.5 | 0.00 | 0.00 | 0.00 | 79 | 1019.5 |
| 20260510061021 | 46 | 313 | 0.9 | 3.5 | 0.00 | 0.00 | 0.00 | 82 | 1019.7 |
| 20260510055521 | 46 | 338 | 0.9 | 3.5 | 0.00 | 0.00 | 0.00 | 83 | 1019.8 |
| 20260510054021 | 46 | 314 | 0.0 | 5.2 | 0.00 | 0.00 | 0.00 | 84 | 1019.5 |
| 20260510052521 | 46 | 271 | 0.9 | 3.5 | 0.00 | 0.00 | 0.00 | 84 | 1019.7 |
| 20260510051021 | 46 | 300 | 0.9 | 6.1 | 0.00 | 0.00 | 0.00 | 84 | 1019.9 |
| 20260510045521 | 46 | 303 | 0.9 | 6.1 | 0.00 | 0.00 | 0.00 | 83 | 1019.8 |
| 20260510044021 | 47 | 338 | 0.9 | 3.5 | 0.00 | 0.00 | 0.00 | 84 | 1019.5 |
| 20260510042521 | 47 | 274 | 1.7 | 5.2 | 0.00 | 0.00 | 0.00 | 84 | 1019.6 |
| 20260510041021 | 47 | 282 | 1.7 | 3.5 | 0.00 | 0.00 | 0.00 | 86 | 1019.7 |
| 20260510035521 | 47 | 313 | 0.9 | 6.1 | 0.00 | 0.00 | 0.00 | 86 | 1019.9 |
| 20260510034021 | 47 | 313 | 0.9 | 3.5 | 0.00 | 0.00 | 0.00 | 87 | 1020.1 |
| 20260510032521 | 47 | 278 | 0.9 | 3.5 | 0.00 | 0.00 | 0.00 | 87 | 1020.1 |
| 20260510031021 | 47 | 346 | 1.7 | 6.1 | 0.00 | 0.00 | 0.00 | 87 | 1020.1 |
| 20260510025521 | 48 | 286 | 0.9 | 3.5 | 0.00 | 0.00 | 0.00 | 87 | 1020.2 |
| 20260510024021 | 48 | 346 | 0.0 | 3.5 | 0.00 | 0.00 | 0.00 | 88 | 1020.1 |
| 20260510022521 | 48 | 298 | 0.9 | 5.2 | 0.00 | 0.00 | 0.00 | 88 | 1020.1 |
| 20260510021021 | 48 | 288 | 0.0 | 3.5 | 0.00 | 0.00 | 0.00 | 88 | 1019.7 |
| 20260510015521 | 48 | 310 | 0.9 | 3.5 | 0.00 | 0.00 | 0.00 | 88 | 1019.7 |
| 20260510014021 | 48 | 212 | 0.9 | 3.5 | 0.00 | 0.00 | 0.00 | 88 | 1019.4 |
| 20260510012521 | 49 | 333 | 1.7 | 3.5 | 0.00 | 0.00 | 0.00 | 89 | 1019.3 |
| 20260510011021 | 49 | 350 | 0.9 | 3.5 | 0.00 | 0.00 | 0.00 | 89 | 1019.8 |
| 20260510005521 | 49 | 304 | 1.7 | 3.5 | 0.00 | 0.00 | 0.00 | 89 | 1019.5 |
| 20260510004021 | 49 | 286 | 0.9 | 3.5 | 0.00 | 0.00 | 0.00 | 89 | 1019.7 |
| 20260510002521 | 49 | 306 | 0.9 | 1.7 | 0.00 | 0.00 | 0.00 | 89 | 1019.8 |
| 20260510001021 | 49 | 139 | 0.9 | 3.5 | 0.00 | 0.00 | 0.00 | 89 | 1019.9 |
| 20260509235521 | 49 | 286 | 0.9 | 5.2 | 0.00 | 0.00 | 0.00 | 89 | 1020.0 |
| 20260509234021 | 49 | 256 | 1.7 | 3.5 | 0.00 | 0.00 | 0.00 | 88 | 1019.9 |
| 20260509232521 | 49 | 306 | 0.0 | 3.5 | 0.00 | 0.00 | 0.00 | 87 | 1020.1 |
| 20260509231021 | 49 | 348 | 0.9 | 3.5 | 0.00 | 0.00 | 0.00 | 89 | 1019.9 |
| 20260509225521 | 49 | 311 | 0.9 | 3.5 | 0.00 | 0.00 | 0.00 | 90 | 1019.6 |
| 20260509224021 | 49 | 344 | 0.9 | 3.5 | 0.00 | 0.00 | 0.00 | 90 | 1019.7 |
| 20260509222521 | 49 | 329 | 0.9 | 1.7 | 0.00 | 0.00 | 0.00 | 90 | 1019.6 |
| 20260509221021 | 49 | 263 | 0.0 | 1.7 | 0.00 | 0.00 | 0.00 | 89 | 1019.7 |
| 20260509215521 | 50 | 249 | 0.9 | 3.5 | 0.00 | 0.00 | 0.00 | 90 | 1019.2 |
| 20260509214021 | 50 | 289 | 0.0 | 3.5 | 0.00 | 0.00 | 0.00 | 90 | 1019.3 |
| 20260509212521 | 50 | 286 | 0.9 | 3.5 | 0.00 | 0.00 | 0.00 | 89 | 1019.1 |